{"data":{"norad_id":57264,"epoch":"2026-05-25T03:27:12.076992Z","epoch_age_seconds":69442,"freshness":"FRESH","line1":"1 57264U 23094AY  26145.14388978 -.00000243  00000+0  69322-6 0  9995","line2":"2 57264  43.0017 308.0237 0001095 272.3381  87.7345 15.27570632158933","mean_motion":15.27570632,"eccentricity":0.0001095,"inclination_deg":43.0017,"raan_deg":308.0237,"arg_perigee_deg":272.3381,"mean_anomaly_deg":87.7345,"bstar":6.9322e-7,"rev_number":15893,"period_min":94.26732681517,"perigee_km":482.325844396,"apogee_km":483.82845029426,"semimajor_km":6861.2141473451,"source":"CELESTRAK","updated_at":"2026-05-25T13:38:18.282416Z"}}